Time,TemperatureF,DewpointF,PressureIn,WindDirection,WindDirectionDegrees,WindSpeedMPH,WindSpeedGustMPH,Humidity,HourlyPrecipIn,Conditions,Clouds,dailyrainin,SoftwareType,DateUTC
2013-03-13 00:00:00,42.2,29.7,29.98,NW,318,3.0,4.0,61,0.00,,---,0.00,VWS V14.01,2013-03-13 04:00:00,
2013-03-13 00:05:00,42.1,29.6,29.98,NW,313,3.0,8.0,61,0.00,,---,0.00,VWS V14.01,2013-03-13 04:05:00,
2013-03-13 00:10:00,41.8,29.8,29.98,NW,309,2.0,8.0,62,0.00,,---,0.00,VWS V14.01,2013-03-13 04:10:00,
2013-03-13 00:15:00,41.7,29.7,29.98,NW,309,0.0,8.0,62,0.00,,---,0.00,VWS V14.01,2013-03-13 04:15:00,
2013-03-13 00:20:00,41.5,29.5,29.98,NW,309,2.0,8.0,62,0.00,,---,0.00,VWS V14.01,2013-03-13 04:20:00,
2013-03-13 00:25:00,41.4,29.8,29.98,NW,311,1.0,8.0,63,0.00,,---,0.00,VWS V14.01,2013-03-13 04:25:00,
2013-03-13 00:30:00,41.3,29.7,29.98,NNW,334,2.0,4.0,63,0.00,,---,0.00,VWS V14.01,2013-03-13 04:30:00,
2013-03-13 00:35:00,41.1,29.9,29.98,NW,324,3.0,7.0,64,0.00,,---,0.00,VWS V14.01,2013-03-13 04:35:00,
2013-03-13 00:40:00,40.9,29.7,29.98,NE,42,6.0,7.0,64,0.00,,---,0.00,VWS V14.01,2013-03-13 04:40:00,
2013-03-13 00:45:00,40.7,29.9,29.98,North,5,1.0,7.0,65,0.00,,---,0.00,VWS V14.01,2013-03-13 04:45:00,
2013-03-13 00:50:00,40.5,30.0,29.97,NNW,343,0.0,7.0,66,0.00,,---,0.00,VWS V14.01,2013-03-13 04:50:00,
2013-03-13 00:55:00,40.3,29.9,29.98,NNW,343,0.0,7.0,66,0.00,,---,0.00,VWS V14.01,2013-03-13 04:55:00,
2013-03-13 01:00:00,40.0,29.9,29.98,NNW,343,1.0,3.0,67,0.00,,---,0.00,VWS V14.01,2013-03-13 05:00:00,
2013-03-13 01:05:00,39.7,29.7,29.98,NNW,343,1.0,3.0,67,0.00,,---,0.00,VWS V14.01,2013-03-13 05:05:00,
2013-03-13 01:10:00,39.5,29.8,29.98,NNW,343,2.0,3.0,68,0.00,,---,0.00,VWS V14.01,2013-03-13 05:10:00,
2013-03-13 01:15:00,39.3,29.6,29.98,NNW,343,2.0,3.0,68,0.00,,---,0.00,VWS V14.01,2013-03-13 05:15:00,
2013-03-13 01:20:00,39.0,29.7,29.98,NNW,343,2.0,3.0,69,0.00,,---,0.00,VWS V14.01,2013-03-13 05:20:00,
2013-03-13 01:25:00,38.7,29.4,29.98,NNW,343,1.0,4.0,69,0.00,,---,0.00,VWS V14.01,2013-03-13 05:25:00,
2013-03-13 01:30:00,38.5,29.6,29.98,NNW,343,1.0,1.0,70,0.00,,---,0.00,VWS V14.01,2013-03-13 05:30:00,
2013-03-13 01:35:00,38.3,29.7,29.98,NNW,343,1.0,3.0,71,0.00,,---,0.00,VWS V14.01,2013-03-13 05:35:00,
2013-03-13 01:40:00,38.2,29.6,29.98,NNW,343,2.0,3.0,71,0.00,,---,0.00,VWS V14.01,2013-03-13 05:40:00,
2013-03-13 01:45:00,38.0,29.8,29.98,NNW,343,3.0,5.0,72,0.00,,---,0.00,VWS V14.01,2013-03-13 05:45:00,
2013-03-13 01:50:00,37.9,29.7,29.98,NNW,341,2.0,6.0,72,0.00,,---,0.00,VWS V14.01,2013-03-13 05:50:00,
2013-03-13 01:55:00,37.9,29.7,29.98,NNW,334,6.0,8.0,72,0.00,,---,0.00,VWS V14.01,2013-03-13 05:55:00,
2013-03-13 02:00:00,38.0,29.8,29.98,WNW,302,5.0,6.0,72,0.00,,---,0.00,VWS V14.01,2013-03-13 06:00:00,
2013-03-13 02:05:00,38.2,30.0,29.98,WNW,302,3.0,6.0,72,0.00,,---,0.00,VWS V14.01,2013-03-13 06:05:00,
2013-03-13 02:10:00,38.3,30.1,29.98,NNW,328,2.0,8.0,72,0.00,,---,0.00,VWS V14.01,2013-03-13 06:10:00,
2013-03-13 02:15:00,38.7,30.1,29.98,NNW,331,1.0,8.0,71,0.00,,---,0.00,VWS V14.01,2013-03-13 06:15:00,
2013-03-13 02:20:00,39.0,30.1,29.98,NW,319,3.0,8.0,70,0.00,,---,0.00,VWS V14.01,2013-03-13 06:20:00,
2013-03-13 02:25:00,39.3,30.0,29.98,NW,325,2.0,8.0,69,0.00,,---,0.00,VWS V14.01,2013-03-13 06:25:00,
2013-03-13 02:30:00,39.6,29.9,29.97,NNW,327,1.0,4.0,68,0.00,,---,0.00,VWS V14.01,2013-03-13 06:30:00,
2013-03-13 02:35:00,39.9,30.2,29.97,NW,319,3.0,7.0,68,0.00,,---,0.00,VWS V14.01,2013-03-13 06:35:00,
2013-03-13 02:40:00,40.3,30.2,29.97,North,10,0.0,7.0,67,0.00,,---,0.00,VWS V14.01,2013-03-13 06:40:00,
2013-03-13 02:45:00,40.5,30.0,29.97,NNW,330,2.0,7.0,66,0.00,,---,0.00,VWS V14.01,2013-03-13 06:45:00,
2013-03-13 02:50:00,40.7,30.2,29.97,NNW,330,1.0,7.0,66,0.00,,---,0.00,VWS V14.01,2013-03-13 06:50:00,
2013-03-13 02:55:00,40.7,29.9,29.96,NNW,330,3.0,7.0,65,0.00,,---,0.00,VWS V14.01,2013-03-13 06:55:00,
2013-03-13 03:00:00,40.7,29.9,29.96,NNW,330,2.0,3.0,65,0.00,,---,0.00,VWS V14.01,2013-03-13 07:00:00,
2013-03-13 03:05:00,40.8,29.6,29.95,NNW,330,1.0,3.0,64,0.00,,---,0.00,VWS V14.01,2013-03-13 07:05:00,
2013-03-13 03:10:00,40.9,30.1,29.96,NNW,330,0.0,3.0,65,0.00,,---,0.00,VWS V14.01,2013-03-13 07:10:00,
2013-03-13 03:15:00,40.7,29.9,29.96,NNW,330,0.0,3.0,65,0.00,,---,0.00,VWS V14.01,2013-03-13 07:15:00,
2013-03-13 03:20:00,40.4,30.7,29.96,NNW,330,0.0,3.0,68,0.00,,---,0.00,VWS V14.01,2013-03-13 07:20:00,
2013-03-13 03:25:00,40.0,29.9,29.96,NNW,330,0.0,3.0,67,0.00,,---,0.00,VWS V14.01,2013-03-13 07:25:00,
2013-03-13 03:30:00,39.4,29.7,29.96,NNW,330,2.0,3.0,68,0.00,,---,0.00,VWS V14.01,2013-03-13 07:30:00,
2013-03-13 03:35:00,39.2,29.9,29.96,NNW,330,0.0,4.0,69,0.00,,---,0.00,VWS V14.01,2013-03-13 07:35:00,
2013-03-13 03:40:00,38.7,29.8,29.96,NNW,330,0.0,4.0,70,0.00,,---,0.00,VWS V14.01,2013-03-13 07:40:00,
2013-03-13 03:45:00,38.5,30.3,29.97,NNW,330,1.0,4.0,72,0.00,,---,0.00,VWS V14.01,2013-03-13 07:45:00,
2013-03-13 03:50:00,38.0,29.8,29.96,NW,325,2.0,5.0,72,0.00,,---,0.00,VWS V14.01,2013-03-13 07:50:00,
2013-03-13 03:55:00,38.0,29.8,29.96,North,355,1.0,5.0,72,0.00,,---,0.00,VWS V14.01,2013-03-13 07:55:00,
2013-03-13 04:00:00,37.9,30.0,29.96,NW,314,2.0,5.0,73,0.00,,---,0.00,VWS V14.01,2013-03-13 08:00:00,
2013-03-13 04:06:00,38.0,29.5,29.95,NNW,345,3.0,9.0,71,0.00,,---,0.00,VWS V14.01,2013-03-13 08:06:00,
2013-03-13 04:11:00,38.6,29.7,29.96,NNW,329,4.0,9.0,70,0.00,,---,0.00,VWS V14.01,2013-03-13 08:11:00,
2013-03-13 04:16:00,39.1,29.1,29.95,NE,53,2.0,9.0,67,0.00,,---,0.00,VWS V14.01,2013-03-13 08:16:00,
2013-03-13 04:21:00,39.8,29.4,29.95,NW,309,5.0,10.0,66,0.00,,---,0.00,VWS V14.01,2013-03-13 08:21:00,
2013-03-13 04:26:00,40.5,29.7,29.95,West,279,2.0,10.0,65,0.00,,---,0.00,VWS V14.01,2013-03-13 08:26:00,
2013-03-13 04:30:00,40.6,29.8,29.95,West,279,2.0,10.0,65,0.00,,---,0.00,VWS V14.01,2013-03-13 08:30:00,
2013-03-13 04:31:00,40.7,29.5,29.95,West,279,0.0,4.0,64,0.00,,---,0.00,VWS V14.01,2013-03-13 08:31:00,
2013-03-13 04:36:00,40.9,29.7,29.96,West,277,3.0,6.0,64,0.00,,---,0.00,VWS V14.01,2013-03-13 08:36:00,
2013-03-13 04:42:00,41.1,29.5,29.95,NW,313,2.0,10.0,63,0.00,,---,0.00,VWS V14.01,2013-03-13 08:42:00,
2013-03-13 04:47:00,41.3,29.3,29.95,West,264,3.0,10.0,62,0.00,,---,0.00,VWS V14.01,2013-03-13 08:47:00,
2013-03-13 04:52:00,41.4,29.4,29.96,West,281,2.0,10.0,62,0.00,,---,0.00,VWS V14.01,2013-03-13 08:52:00,
2013-03-13 04:57:00,41.4,29.4,29.96,West,280,7.0,10.0,62,0.00,,---,0.00,VWS V14.01,2013-03-13 08:57:00,
2013-03-13 05:00:00,41.5,29.5,29.96,West,274,4.0,10.0,62,0.00,,---,0.00,VWS V14.01,2013-03-13 09:00:00,
2013-03-13 05:02:00,41.5,29.1,29.96,West,279,7.0,10.0,61,0.00,,---,0.00,VWS V14.01,2013-03-13 09:02:00,
2013-03-13 05:07:00,41.5,29.1,29.96,WNW,286,12.0,17.0,61,0.00,,---,0.00,VWS V14.01,2013-03-13 09:07:00,
2013-03-13 05:12:00,41.6,27.9,29.96,NW,305,13.0,28.0,58,0.00,,---,0.00,VWS V14.01,2013-03-13 09:12:00,
2013-03-13 05:17:00,41.6,28.4,29.96,WNW,284,12.0,28.0,59,0.00,,---,0.00,VWS V14.01,2013-03-13 09:17:00,
2013-03-13 05:22:00,41.7,28.4,29.97,WNW,299,7.0,28.0,59,0.00,,---,0.00,VWS V14.01,2013-03-13 09:22:00,
2013-03-13 05:27:00,41.6,27.9,29.98,NW,310,8.0,28.0,58,0.00,,---,0.00,VWS V14.01,2013-03-13 09:27:00,
2013-03-13 05:30:00,41.6,27.9,29.98,WNW,298,14.0,28.0,58,0.00,,---,0.00,VWS V14.01,2013-03-13 09:30:00,
2013-03-13 05:32:00,41.5,27.8,29.98,WNW,299,11.0,14.0,58,0.00,,---,0.00,VWS V14.01,2013-03-13 09:32:00,
2013-03-13 05:37:00,41.4,27.8,29.99,NW,304,6.0,14.0,58,0.00,,---,0.00,VWS V14.01,2013-03-13 09:37:00,
2013-03-13 05:42:00,41.2,27.6,29.99,WNW,286,6.0,14.0,58,0.00,,---,0.00,VWS V14.01,2013-03-13 09:42:00,
2013-03-13 05:47:00,41.0,27.0,29.99,NW,306,3.0,14.0,57,0.00,,---,0.00,VWS V14.01,2013-03-13 09:47:00,
2013-03-13 05:52:00,40.9,26.9,29.99,WNW,287,4.0,14.0,57,0.00,,---,0.00,VWS V14.01,2013-03-13 09:52:00,
2013-03-13 05:57:00,40.7,27.1,29.99,WNW,287,3.0,14.0,58,0.00,,---,0.00,VWS V14.01,2013-03-13 09:57:00,
2013-03-13 06:00:00,40.6,26.6,29.99,WNW,286,4.0,14.0,57,0.00,,---,0.00,VWS V14.01,2013-03-13 10:00:00,
2013-03-13 06:02:00,40.5,26.9,29.99,West,276,3.0,6.0,58,0.00,,---,0.00,VWS V14.01,2013-03-13 10:02:00,
2013-03-13 06:07:00,40.2,26.6,30.00,West,276,2.0,6.0,58,0.00,,---,0.00,VWS V14.01,2013-03-13 10:07:00,
2013-03-13 06:12:00,39.9,26.3,30.00,West,276,3.0,6.0,58,0.00,,---,0.00,VWS V14.01,2013-03-13 10:12:00,
2013-03-13 06:17:00,39.7,26.1,30.00,West,279,2.0,6.0,58,0.00,,---,0.00,VWS V14.01,2013-03-13 10:17:00,
2013-03-13 06:22:00,39.5,26.0,30.00,West,277,3.0,6.0,58,0.00,,---,0.00,VWS V14.01,2013-03-13 10:22:00,
2013-03-13 06:27:00,39.3,25.8,30.00,West,277,2.0,6.0,58,0.00,,---,0.00,VWS V14.01,2013-03-13 10:27:00,
2013-03-13 06:30:00,39.3,25.4,30.00,West,277,1.0,6.0,57,0.00,,---,0.00,VWS V14.01,2013-03-13 10:30:00,
2013-03-13 06:32:00,39.2,25.3,30.00,West,277,1.0,3.0,57,0.00,,---,0.00,VWS V14.01,2013-03-13 10:32:00,
2013-03-13 06:37:00,39.0,25.5,30.00,West,277,2.0,5.0,58,0.00,,---,0.00,VWS V14.01,2013-03-13 10:37:00,
2013-03-13 06:42:00,38.9,25.4,30.00,West,277,0.0,5.0,58,0.00,,---,0.00,VWS V14.01,2013-03-13 10:42:00,
2013-03-13 06:47:00,38.8,25.3,30.00,West,277,1.0,5.0,58,0.00,,---,0.00,VWS V14.01,2013-03-13 10:47:00,
2013-03-13 06:52:00,38.6,25.1,30.00,West,277,0.0,5.0,58,0.00,,---,0.00,VWS V14.01,2013-03-13 10:52:00,
2013-03-13 06:57:00,38.5,25.0,30.00,West,277,0.0,5.0,58,0.00,,---,0.00,VWS V14.01,2013-03-13 10:57:00,
2013-03-13 07:00:00,38.4,25.3,30.00,West,277,0.0,5.0,59,0.00,,---,0.00,VWS V14.01,2013-03-13 11:00:00,
2013-03-13 07:02:00,38.3,25.2,30.00,West,277,0.0,0.0,59,0.00,,---,0.00,VWS V14.01,2013-03-13 11:02:00,
2013-03-13 07:07:00,38.1,25.1,30.00,West,277,2.0,2.0,59,0.00,,---,0.00,VWS V14.01,2013-03-13 11:07:00,
2013-03-13 07:12:00,37.9,25.3,30.01,West,277,0.0,3.0,60,0.00,,---,0.00,VWS V14.01,2013-03-13 11:12:00,
2013-03-13 07:17:00,37.7,25.1,30.01,West,276,3.0,6.0,60,0.00,,---,0.00,VWS V14.01,2013-03-13 11:17:00,
2013-03-13 07:22:00,37.6,25.4,30.01,West,276,0.0,6.0,61,0.00,,---,0.00,VWS V14.01,2013-03-13 11:22:00,
2013-03-13 07:27:00,37.4,25.2,30.01,West,276,0.0,6.0,61,0.00,,---,0.00,VWS V14.01,2013-03-13 11:27:00,
2013-03-13 07:30:00,37.3,25.1,30.01,West,276,0.0,6.0,61,0.00,,---,0.00,VWS V14.01,2013-03-13 11:30:00,
2013-03-13 07:32:00,37.2,25.4,30.01,West,276,0.0,0.0,62,0.00,,---,0.00,VWS V14.01,2013-03-13 11:32:00,
2013-03-13 07:37:00,37.1,25.7,30.01,West,276,0.0,0.0,63,0.00,,---,0.00,VWS V14.01,2013-03-13 11:37:00,
2013-03-13 07:42:00,37.0,26.0,30.01,West,276,0.0,0.0,64,0.00,,---,0.00,VWS V14.01,2013-03-13 11:42:00,
2013-03-13 07:47:00,36.8,25.4,30.01,West,276,0.0,0.0,63,0.00,,---,0.00,VWS V14.01,2013-03-13 11:47:00,
2013-03-13 07:52:00,36.7,25.7,30.01,West,276,0.0,0.0,64,0.00,,---,0.00,VWS V14.01,2013-03-13 11:52:00,
2013-03-13 07:57:00,36.2,25.6,30.01,West,276,0.0,0.0,65,0.00,,---,0.00,VWS V14.01,2013-03-13 11:57:00,
2013-03-13 08:00:00,36.2,25.6,30.01,West,276,0.0,0.0,65,0.00,,---,0.00,VWS V14.01,2013-03-13 12:00:00,
2013-03-13 08:02:00,36.2,26.0,30.01,West,276,0.0,0.0,66,0.00,,---,0.00,VWS V14.01,2013-03-13 12:02:00,
2013-03-13 08:07:00,36.2,25.6,30.01,West,276,0.0,0.0,65,0.00,,---,0.00,VWS V14.01,2013-03-13 12:07:00,
2013-03-13 08:12:00,36.1,26.2,30.01,West,276,0.0,2.0,67,0.00,,---,0.00,VWS V14.01,2013-03-13 12:12:00,
2013-03-13 08:17:00,36.3,26.0,30.01,West,276,1.0,2.0,66,0.00,,---,0.00,VWS V14.01,2013-03-13 12:17:00,
2013-03-13 08:22:00,36.8,26.1,30.01,West,276,0.0,3.0,65,0.00,,---,0.00,VWS V14.01,2013-03-13 12:22:00,
2013-03-13 08:27:00,37.2,28.0,30.01,West,276,0.0,3.0,69,0.00,,---,0.00,VWS V14.01,2013-03-13 12:27:00,
2013-03-13 08:30:00,37.3,28.1,30.01,West,276,0.0,3.0,69,0.00,,---,0.00,VWS V14.01,2013-03-13 12:30:00,
2013-03-13 08:32:00,37.4,28.2,30.01,West,276,0.0,0.0,69,0.00,,---,0.00,VWS V14.01,2013-03-13 12:32:00,
2013-03-13 08:37:00,37.7,28.8,30.01,West,276,0.0,0.0,70,0.00,,---,0.00,VWS V14.01,2013-03-13 12:37:00,
2013-03-13 08:42:00,37.9,29.0,30.01,West,276,0.0,0.0,70,0.00,,---,0.00,VWS V14.01,2013-03-13 12:42:00,
2013-03-13 08:47:00,38.2,30.0,30.01,West,276,0.0,0.0,72,0.00,,---,0.00,VWS V14.01,2013-03-13 12:47:00,
2013-03-13 08:52:00,38.5,28.1,30.01,West,276,2.0,2.0,66,0.00,,---,0.00,VWS V14.01,2013-03-13 12:52:00,
2013-03-13 08:57:00,38.8,28.1,30.01,West,276,4.0,5.0,65,0.00,,---,0.00,VWS V14.01,2013-03-13 12:57:00,
2013-03-13 09:00:00,39.0,28.2,30.01,West,277,5.0,5.0,65,0.00,,---,0.00,VWS V14.01,2013-03-13 13:00:00,
2013-03-13 09:02:00,39.3,27.8,30.01,West,271,4.0,5.0,63,0.00,,---,0.00,VWS V14.01,2013-03-13 13:02:00,
2013-03-13 09:07:00,39.9,28.0,30.01,West,263,4.0,7.0,62,0.00,,---,0.00,VWS V14.01,2013-03-13 13:07:00,
2013-03-13 09:12:00,40.5,28.1,30.01,WSW,258,2.0,7.0,61,0.00,,---,0.00,VWS V14.01,2013-03-13 13:12:00,
2013-03-13 09:17:00,41.0,28.2,30.01,West,273,3.0,8.0,60,0.00,,---,0.00,VWS V14.01,2013-03-13 13:17:00,
2013-03-13 09:22:00,41.4,27.3,30.01,West,271,4.0,10.0,57,0.00,,---,0.00,VWS V14.01,2013-03-13 13:22:00,
2013-03-13 09:27:00,41.6,27.1,30.01,West,273,6.0,10.0,56,0.00,,---,0.00,VWS V14.01,2013-03-13 13:27:00,
2013-03-13 09:30:00,41.8,27.7,30.01,West,273,3.0,10.0,57,0.00,,---,0.00,VWS V14.01,2013-03-13 13:30:00,
2013-03-13 09:32:00,42.0,27.5,30.01,West,260,4.0,8.0,56,0.00,,---,0.00,VWS V14.01,2013-03-13 13:32:00,
2013-03-13 09:37:00,42.3,27.3,30.01,WSW,246,3.0,9.0,55,0.00,,---,0.00,VWS V14.01,2013-03-13 13:37:00,
2013-03-13 09:42:00,42.5,27.5,30.02,WSW,241,4.0,9.0,55,0.00,,---,0.00,VWS V14.01,2013-03-13 13:42:00,
2013-03-13 09:47:00,42.6,27.1,30.02,WSW,254,3.0,9.0,54,0.00,,---,0.00,VWS V14.01,2013-03-13 13:47:00,
2013-03-13 09:52:00,42.7,28.1,30.02,West,269,5.0,9.0,56,0.00,,---,0.00,VWS V14.01,2013-03-13 13:52:00,
2013-03-13 09:57:00,42.9,28.3,30.02,WNW,289,4.0,11.0,56,0.00,,---,0.00,VWS V14.01,2013-03-13 13:57:00,
2013-03-13 10:00:00,43.0,28.0,30.02,WSW,257,7.0,11.0,55,0.00,,---,0.00,VWS V14.01,2013-03-13 14:00:00,
2013-03-13 10:02:00,42.9,27.9,30.02,WNW,296,10.0,12.0,55,0.00,,---,0.00,VWS V14.01,2013-03-13 14:02:00,
2013-03-13 10:07:00,42.5,27.5,30.02,West,272,6.0,13.0,55,0.00,,---,0.00,VWS V14.01,2013-03-13 14:07:00,
2013-03-13 10:12:00,42.2,28.1,30.02,West,264,5.0,13.0,57,0.00,,---,0.00,VWS V14.01,2013-03-13 14:12:00,
2013-03-13 10:17:00,42.3,28.6,30.02,WSW,258,11.0,13.0,58,0.00,,---,0.00,VWS V14.01,2013-03-13 14:17:00,
2013-03-13 10:22:00,42.5,27.9,30.02,West,259,6.0,14.0,56,0.00,,---,0.00,VWS V14.01,2013-03-13 14:22:00,
2013-03-13 10:27:00,42.7,28.1,30.02,West,278,10.0,14.0,56,0.00,,---,0.00,VWS V14.01,2013-03-13 14:27:00,
2013-03-13 10:30:00,42.8,28.2,30.02,West,267,8.0,14.0,56,0.00,,---,0.00,VWS V14.01,2013-03-13 14:30:00,
2013-03-13 10:32:00,43.0,28.4,30.02,WSW,257,11.0,14.0,56,0.00,,---,0.00,VWS V14.01,2013-03-13 14:32:00,
2013-03-13 10:37:00,43.1,27.6,30.02,WSW,244,10.0,14.0,54,0.00,,---,0.00,VWS V14.01,2013-03-13 14:37:00,
2013-03-13 10:42:00,43.0,27.5,30.02,SW,230,4.0,15.0,54,0.00,,---,0.00,VWS V14.01,2013-03-13 14:42:00,
2013-03-13 10:47:00,42.7,27.2,30.02,West,269,9.0,17.0,54,0.00,,---,0.00,VWS V14.01,2013-03-13 14:47:00,
2013-03-13 10:52:00,42.7,28.5,30.02,WSW,252,10.0,17.0,57,0.00,,---,0.00,VWS V14.01,2013-03-13 14:52:00,
2013-03-13 10:57:00,42.8,27.3,30.02,SW,215,6.0,17.0,54,0.00,,---,0.00,VWS V14.01,2013-03-13 14:57:00,
2013-03-13 11:00:00,42.7,27.7,30.02,WNW,296,11.0,17.0,55,0.00,,---,0.00,VWS V14.01,2013-03-13 15:00:00,
2013-03-13 11:02:00,42.8,28.6,30.02,West,264,7.0,13.0,57,0.00,,---,0.00,VWS V14.01,2013-03-13 15:02:00,
2013-03-13 11:07:00,43.3,28.2,30.02,WSW,253,6.0,15.0,55,0.00,,---,0.00,VWS V14.01,2013-03-13 15:07:00,
2013-03-13 11:12:00,43.3,28.2,30.02,West,281,12.0,15.0,55,0.00,,---,0.00,VWS V14.01,2013-03-13 15:12:00,
2013-03-13 11:17:00,43.3,28.7,30.02,West,277,12.0,15.0,56,0.00,,---,0.00,VWS V14.01,2013-03-13 15:17:00,
2013-03-13 11:22:00,43.3,28.2,30.02,West,275,4.0,19.0,55,0.00,,---,0.00,VWS V14.01,2013-03-13 15:22:00,
2013-03-13 11:27:00,43.4,27.9,30.02,WSW,242,11.0,19.0,54,0.00,,---,0.00,VWS V14.01,2013-03-13 15:27:00,
2013-03-13 11:30:00,43.4,27.4,30.02,WSW,240,8.0,19.0,53,0.00,,---,0.00,VWS V14.01,2013-03-13 15:30:00,
2013-03-13 11:32:00,43.3,27.8,30.02,WSW,248,4.0,13.0,54,0.00,,---,0.00,VWS V14.01,2013-03-13 15:32:00,
2013-03-13 11:37:00,43.4,27.9,30.02,WSW,239,11.0,19.0,54,0.00,,---,0.00,VWS V14.01,2013-03-13 15:37:00,
2013-03-13 11:42:00,43.6,28.1,30.02,West,273,12.0,19.0,54,0.00,,---,0.00,VWS V14.01,2013-03-13 15:42:00,
2013-03-13 11:47:00,43.9,28.4,30.02,West,274,8.0,19.0,54,0.00,,---,0.00,VWS V14.01,2013-03-13 15:47:00,
2013-03-13 11:52:00,43.9,27.9,30.01,WSW,248,12.0,19.0,53,0.00,,---,0.00,VWS V14.01,2013-03-13 15:52:00,
2013-03-13 11:57:00,43.6,28.1,30.01,WSW,253,10.0,19.0,54,0.00,,---,0.00,VWS V14.01,2013-03-13 15:57:00,
2013-03-13 12:00:00,43.4,28.3,30.02,West,261,9.0,19.0,55,0.00,,---,0.00,VWS V14.01,2013-03-13 16:00:00,
2013-03-13 12:02:00,43.3,29.1,30.01,West,281,6.0,12.0,57,0.00,,---,0.00,VWS V14.01,2013-03-13 16:02:00,
2013-03-13 12:07:00,43.4,28.8,30.01,West,280,12.0,19.0,56,0.00,,---,0.00,VWS V14.01,2013-03-13 16:07:00,
2013-03-13 12:12:00,43.5,28.9,30.02,West,259,8.0,19.0,56,0.00,,---,0.00,VWS V14.01,2013-03-13 16:12:00,
2013-03-13 12:17:00,43.2,30.3,30.03,West,262,9.0,19.0,60,0.00,,---,0.00,VWS V14.01,2013-03-13 16:17:00,
2013-03-13 12:22:00,42.3,30.6,30.03,West,275,12.0,20.0,63,0.00,,---,0.00,VWS V14.01,2013-03-13 16:22:00,
2013-03-13 12:27:00,41.6,31.1,30.03,West,265,6.0,20.0,66,0.00,,---,0.00,VWS V14.01,2013-03-13 16:27:00,
2013-03-13 12:30:00,41.6,31.5,30.03,WSW,253,6.0,20.0,67,0.00,,---,0.00,VWS V14.01,2013-03-13 16:30:00,
2013-03-13 12:32:00,41.7,31.6,30.02,WSW,238,5.0,17.0,67,0.00,,---,0.00,VWS V14.01,2013-03-13 16:32:00,
2013-03-13 12:37:00,42.0,31.5,30.02,SW,235,9.0,17.0,66,0.00,,---,0.00,VWS V14.01,2013-03-13 16:37:00,
2013-03-13 12:42:00,42.3,31.4,30.01,WSW,237,6.0,17.0,65,0.00,,---,0.00,VWS V14.01,2013-03-13 16:42:00,
2013-03-13 12:47:00,42.7,31.8,30.01,West,271,8.0,17.0,65,0.00,,---,0.00,VWS V14.01,2013-03-13 16:47:00,
2013-03-13 12:52:00,43.1,32.5,30.01,WSW,250,5.0,17.0,66,0.00,,---,0.00,VWS V14.01,2013-03-13 16:52:00,
2013-03-13 12:57:00,43.9,31.3,30.01,SW,225,8.0,17.0,61,0.00,,---,0.00,VWS V14.01,2013-03-13 16:57:00,
2013-03-13 13:00:00,43.9,30.1,30.01,West,269,8.0,17.0,58,0.00,,---,0.00,VWS V14.01,2013-03-13 17:00:00,
2013-03-13 13:02:00,43.8,30.8,30.01,WSW,257,6.0,15.0,60,0.00,,---,0.00,VWS V14.01,2013-03-13 17:02:00,
2013-03-13 13:07:00,43.6,30.2,30.00,West,259,7.0,15.0,59,0.00,,---,0.00,VWS V14.01,2013-03-13 17:07:00,
2013-03-13 13:12:00,43.6,30.6,30.00,West,265,4.0,15.0,60,0.00,,---,0.00,VWS V14.01,2013-03-13 17:12:00,
2013-03-13 13:17:00,43.4,30.9,30.00,West,281,9.0,16.0,61,0.00,,---,0.00,VWS V14.01,2013-03-13 17:17:00,
2013-03-13 13:22:00,43.5,32.2,30.00,West,268,7.0,16.0,64,0.00,,---,0.00,VWS V14.01,2013-03-13 17:22:00,
2013-03-13 13:27:00,44.1,30.7,30.00,West,266,8.0,16.0,59,0.00,,---,0.00,VWS V14.01,2013-03-13 17:27:00,
2013-03-13 13:30:00,44.4,30.6,29.99,WNW,302,6.0,16.0,58,0.00,,---,0.00,VWS V14.01,2013-03-13 17:30:00,
2013-03-13 13:32:00,45.1,29.5,29.99,West,271,11.0,19.0,54,0.00,,---,0.00,VWS V14.01,2013-03-13 17:32:00,
2013-03-13 13:37:00,45.2,27.7,29.99,WNW,297,10.0,20.0,50,0.00,,---,0.00,VWS V14.01,2013-03-13 17:37:00,
2013-03-13 13:42:00,44.9,27.9,29.99,NW,323,10.0,20.0,51,0.00,,---,0.00,VWS V14.01,2013-03-13 17:42:00,
2013-03-13 13:47:00,44.2,27.7,30.00,NW,315,14.0,21.0,52,0.00,,---,0.00,VWS V14.01,2013-03-13 17:47:00,
2013-03-13 13:52:00,42.9,30.0,30.00,WNW,300,17.0,22.0,60,0.00,,---,0.00,VWS V14.01,2013-03-13 17:52:00,
2013-03-13 13:57:00,40.9,32.9,30.01,WNW,290,15.0,22.0,73,0.00,,---,0.00,VWS V14.01,2013-03-13 17:57:00,
2013-03-13 14:00:00,40.4,31.8,30.01,WNW,301,18.0,22.0,71,0.00,,---,0.00,VWS V14.01,2013-03-13 18:00:00,
2013-03-13 14:02:00,39.6,32.3,30.01,WNW,290,12.0,21.0,75,0.00,,---,0.00,VWS V14.01,2013-03-13 18:02:00,
2013-03-13 14:07:00,39.0,32.4,30.01,WNW,302,12.0,21.0,77,0.00,,---,0.00,VWS V14.01,2013-03-13 18:07:00,
2013-03-13 14:12:00,39.1,31.9,30.01,West,277,17.0,22.0,75,0.00,,---,0.00,VWS V14.01,2013-03-13 18:12:00,
2013-03-13 14:17:00,39.2,29.9,30.01,NW,310,11.0,24.0,69,0.00,,---,0.00,VWS V14.01,2013-03-13 18:17:00,
2013-03-13 14:22:00,39.4,30.4,30.01,NNW,344,9.0,24.0,70,0.00,,---,0.00,VWS V14.01,2013-03-13 18:22:00,
2013-03-13 14:27:00,40.2,30.5,30.00,West,273,12.0,24.0,68,0.00,,---,0.00,VWS V14.01,2013-03-13 18:27:00,
2013-03-13 14:30:00,40.5,30.8,30.00,WNW,288,7.0,24.0,68,0.00,,---,0.00,VWS V14.01,2013-03-13 18:30:00,
2013-03-13 14:32:00,41.2,31.8,30.00,NNW,333,12.0,15.0,69,0.00,,---,0.00,VWS V14.01,2013-03-13 18:32:00,
2013-03-13 14:37:00,42.3,29.4,30.00,WNW,290,7.0,19.0,60,0.00,,---,0.00,VWS V14.01,2013-03-13 18:37:00,
2013-03-13 14:42:00,42.4,29.1,30.00,WNW,289,4.0,20.0,59,0.00,,---,0.00,VWS V14.01,2013-03-13 18:42:00,
2013-03-13 14:47:00,42.3,29.0,30.00,NW,309,11.0,20.0,59,0.00,,---,0.00,VWS V14.01,2013-03-13 18:47:00,
2013-03-13 14:52:00,42.3,29.0,29.99,West,281,6.0,20.0,59,0.00,,---,0.00,VWS V14.01,2013-03-13 18:52:00,
2013-03-13 14:57:00,42.5,28.4,29.99,WSW,238,10.0,20.0,57,0.00,,---,0.00,VWS V14.01,2013-03-13 18:57:00,
2013-03-13 15:00:00,42.7,28.1,29.99,NW,315,7.0,20.0,56,0.00,,---,0.00,VWS V14.01,2013-03-13 19:00:00,
2013-03-13 15:02:00,43.1,27.1,29.98,West,271,19.0,21.0,53,0.00,,---,0.00,VWS V14.01,2013-03-13 19:02:00,
2013-03-13 15:07:00,43.2,26.3,29.99,NNW,348,6.0,22.0,51,0.00,,---,0.00,VWS V14.01,2013-03-13 19:07:00,
2013-03-13 15:12:00,43.3,25.4,29.98,WSW,249,17.0,27.0,49,0.00,,---,0.00,VWS V14.01,2013-03-13 19:12:00,
2013-03-13 15:17:00,44.2,25.8,29.98,West,280,9.0,27.0,48,0.00,,---,0.00,VWS V14.01,2013-03-13 19:17:00,
2013-03-13 15:22:00,45.0,25.5,29.98,West,272,17.0,27.0,46,0.00,,---,0.00,VWS V14.01,2013-03-13 19:22:00,
2013-03-13 15:27:00,45.3,24.7,29.98,WSW,245,8.0,27.0,44,0.00,,---,0.00,VWS V14.01,2013-03-13 19:27:00,
2013-03-13 15:30:00,45.4,24.8,29.98,WNW,286,12.0,27.0,44,0.00,,---,0.00,VWS V14.01,2013-03-13 19:30:00,
2013-03-13 15:32:00,45.3,25.2,29.98,WNW,285,13.0,19.0,45,0.00,,---,0.00,VWS V14.01,2013-03-13 19:32:00,
2013-03-13 15:37:00,44.6,25.6,29.99,WNW,290,15.0,22.0,47,0.00,,---,0.00,VWS V14.01,2013-03-13 19:37:00,
2013-03-13 15:42:00,43.8,25.9,29.99,WNW,300,18.0,25.0,49,0.00,,---,0.00,VWS V14.01,2013-03-13 19:42:00,
2013-03-13 15:47:00,43.6,25.2,29.99,WSW,255,16.0,25.0,48,0.00,,---,0.00,VWS V14.01,2013-03-13 19:47:00,
2013-03-13 15:52:00,43.5,25.6,29.99,West,269,11.0,25.0,49,0.00,,---,0.00,VWS V14.01,2013-03-13 19:52:00,
2013-03-13 15:57:00,43.7,24.8,29.99,NNW,339,18.0,25.0,47,0.00,,---,0.00,VWS V14.01,2013-03-13 19:57:00,
2013-03-13 16:00:00,43.7,25.8,30.00,NW,315,8.0,25.0,49,0.00,,---,0.00,VWS V14.01,2013-03-13 20:00:00,
2013-03-13 16:02:00,44.1,26.2,29.99,WNW,299,11.0,17.0,49,0.00,,---,0.00,VWS V14.01,2013-03-13 20:02:00,
2013-03-13 16:07:00,44.5,25.5,30.00,West,266,21.0,25.0,47,0.00,,---,0.00,VWS V14.01,2013-03-13 20:07:00,
2013-03-13 16:13:00,43.9,24.0,30.00,West,273,14.0,27.0,45,0.00,,---,0.00,VWS V14.01,2013-03-13 20:13:00,
2013-03-13 16:18:00,43.8,25.4,30.00,West,259,9.0,27.0,48,0.00,,---,0.00,VWS V14.01,2013-03-13 20:18:00,
2013-03-13 16:23:00,44.4,26.5,30.00,WNW,298,11.0,27.0,49,0.00,,---,0.00,VWS V14.01,2013-03-13 20:23:00,
2013-03-13 16:28:00,44.0,25.1,30.00,West,281,7.0,27.0,47,0.00,,---,0.00,VWS V14.01,2013-03-13 20:28:00,
2013-03-13 16:30:00,43.8,24.4,30.00,NNW,329,9.0,27.0,46,0.00,,---,0.00,VWS V14.01,2013-03-13 20:30:00,
2013-03-13 16:33:00,43.5,25.6,30.00,NNE,16,17.0,19.0,49,0.00,,---,0.00,VWS V14.01,2013-03-13 20:33:00,
2013-03-13 16:38:00,43.6,24.2,30.01,NW,315,24.0,24.0,46,0.00,,---,0.00,VWS V14.01,2013-03-13 20:38:00,
2013-03-13 16:43:00,43.6,24.7,30.01,West,276,20.0,24.0,47,0.00,,---,0.00,VWS V14.01,2013-03-13 20:43:00,
2013-03-13 16:48:00,43.8,23.9,30.02,WNW,292,13.0,26.0,45,0.00,,---,0.00,VWS V14.01,2013-03-13 20:48:00,
2013-03-13 16:53:00,43.3,23.4,30.02,WNW,298,9.0,26.0,45,0.00,,---,0.00,VWS V14.01,2013-03-13 20:53:00,
2013-03-13 16:58:00,43.1,22.7,30.02,NW,320,14.0,26.0,44,0.00,,---,0.00,VWS V14.01,2013-03-13 20:58:00,
2013-03-13 17:00:00,43.1,22.7,30.02,West,281,11.0,26.0,44,0.00,,---,0.00,VWS V14.01,2013-03-13 21:00:00,
2013-03-13 17:03:00,43.1,21.0,30.02,WNW,285,6.0,21.0,41,0.00,,---,0.00,VWS V14.01,2013-03-13 21:03:00,
2013-03-13 17:08:00,42.5,19.3,30.02,West,277,12.0,24.0,39,0.00,,---,0.00,VWS V14.01,2013-03-13 21:08:00,
2013-03-13 17:13:00,42.5,19.3,30.03,WNW,285,27.0,27.0,39,0.00,,---,0.00,VWS V14.01,2013-03-13 21:13:00,
2013-03-13 17:18:00,42.5,18.1,30.03,West,267,12.0,27.0,37,0.00,,---,0.00,VWS V14.01,2013-03-13 21:18:00,
2013-03-13 17:23:00,42.3,17.9,30.03,NW,317,12.0,30.0,37,0.00,,---,0.00,VWS V14.01,2013-03-13 21:23:00,
2013-03-13 17:28:00,42.3,17.3,30.03,NW,308,10.0,30.0,36,0.00,,---,0.00,VWS V14.01,2013-03-13 21:28:00,
2013-03-13 17:30:00,42.3,17.9,30.03,WNW,292,11.0,30.0,37,0.00,,---,0.00,VWS V14.01,2013-03-13 21:30:00,
2013-03-13 17:33:00,42.4,18.6,30.03,WNW,287,13.0,18.0,38,0.00,,---,0.00,VWS V14.01,2013-03-13 21:33:00,
2013-03-13 17:38:00,42.7,18.3,30.04,WSW,254,14.0,22.0,37,0.00,,---,0.00,VWS V14.01,2013-03-13 21:38:00,
2013-03-13 17:43:00,42.5,18.7,30.04,WNW,285,9.0,22.0,38,0.00,,---,0.00,VWS V14.01,2013-03-13 21:43:00,
2013-03-13 17:48:00,42.5,19.3,30.04,WNW,292,9.0,22.0,39,0.00,,---,0.00,VWS V14.01,2013-03-13 21:48:00,
2013-03-13 17:53:00,42.5,19.3,30.04,West,275,9.0,22.0,39,0.00,,---,0.00,VWS V14.01,2013-03-13 21:53:00,
2013-03-13 17:58:00,42.5,19.3,30.05,WNW,296,9.0,22.0,39,0.00,,---,0.00,VWS V14.01,2013-03-13 21:58:00,
2013-03-13 18:00:00,42.6,19.4,30.05,NW,304,9.0,22.0,39,0.00,,---,0.00,VWS V14.01,2013-03-13 22:00:00,
2013-03-13 18:03:00,42.4,18.6,30.05,WNW,292,12.0,24.0,38,0.00,,---,0.00,VWS V14.01,2013-03-13 22:03:00,
2013-03-13 18:08:00,41.8,18.1,30.05,WNW,288,9.0,24.0,38,0.00,,---,0.00,VWS V14.01,2013-03-13 22:08:00,
2013-03-13 18:13:00,41.0,18.5,30.05,West,271,14.0,25.0,40,0.00,,---,0.00,VWS V14.01,2013-03-13 22:13:00,
2013-03-13 18:18:00,40.4,18.0,30.06,West,273,9.0,25.0,40,0.00,,---,0.00,VWS V14.01,2013-03-13 22:18:00,
2013-03-13 18:23:00,40.4,18.6,30.06,West,268,10.0,25.0,41,0.00,,---,0.00,VWS V14.01,2013-03-13 22:23:00,
2013-03-13 18:28:00,40.4,18.6,30.06,WNW,296,6.0,25.0,41,0.00,,---,0.00,VWS V14.01,2013-03-13 22:28:00,
2013-03-13 18:30:00,40.3,19.0,30.06,West,259,10.0,25.0,42,0.00,,---,0.00,VWS V14.01,2013-03-13 22:30:00,
2013-03-13 18:33:00,40.1,18.3,30.06,NW,316,7.0,17.0,41,0.00,,---,0.00,VWS V14.01,2013-03-13 22:33:00,
2013-03-13 18:38:00,39.8,18.6,30.06,NNW,339,11.0,17.0,42,0.00,,---,0.00,VWS V14.01,2013-03-13 22:38:00,
2013-03-13 18:43:00,39.5,18.9,30.07,WNW,297,6.0,17.0,43,0.00,,---,0.00,VWS V14.01,2013-03-13 22:43:00,
2013-03-13 19:16:00,37.9,19.0,30.09,West,265,13.0,-999.0,46,-99.99,,,0.00,weatherlink.com 1.10,2013-03-13 23:16:00,
2013-03-13 19:21:00,37.7,18.8,30.08,NW,319,7.0,20.0,46,0.00,,---,0.00,VWS V14.01,2013-03-13 23:21:00,
2013-03-13 19:26:00,37.5,20.1,30.09,NW,305,13.0,20.0,49,0.00,,---,0.00,VWS V14.01,2013-03-13 23:26:00,
2013-03-13 19:30:00,37.3,19.9,30.09,WNW,292,9.0,20.0,49,0.00,,---,0.00,VWS V14.01,2013-03-13 23:30:00,
2013-03-13 19:31:00,37.2,19.8,30.09,West,273,10.0,18.0,49,0.00,,---,0.00,VWS V14.01,2013-03-13 23:31:00,
2013-03-13 19:36:00,36.9,19.1,30.09,WNW,290,6.0,18.0,48,0.00,,---,0.00,VWS V14.01,2013-03-13 23:36:00,
2013-03-13 19:41:00,36.6,18.8,30.09,West,281,9.0,18.0,48,0.00,,---,0.00,VWS V14.01,2013-03-13 23:41:00,
2013-03-13 19:46:00,36.5,19.2,30.10,WNW,284,8.0,18.0,49,0.00,,---,0.00,VWS V14.01,2013-03-13 23:46:00,
2013-03-13 19:51:00,36.3,20.4,30.10,NW,321,14.0,18.0,52,0.00,,---,0.00,VWS V14.01,2013-03-13 23:51:00,
2013-03-13 19:56:00,36.0,21.0,30.10,NW,309,3.0,18.0,54,0.00,,---,0.00,VWS V14.01,2013-03-13 23:56:00,
2013-03-13 20:00:00,35.9,21.3,30.10,NW,325,4.0,18.0,55,0.00,,---,0.00,VWS V14.01,2013-03-14 00:00:00,
2013-03-13 20:01:00,35.8,21.2,30.11,NNW,334,4.0,9.0,55,0.00,,---,0.00,VWS V14.01,2013-03-14 00:01:00,
2013-03-13 20:06:00,35.6,21.5,30.11,NW,322,5.0,9.0,56,0.00,,---,0.00,VWS V14.01,2013-03-14 00:06:00,
2013-03-13 20:11:00,35.4,21.3,30.11,NW,315,6.0,9.0,56,0.00,,---,0.00,VWS V14.01,2013-03-14 00:11:00,
2013-03-13 20:17:00,35.3,20.8,30.11,WNW,295,4.0,9.0,55,0.00,,---,0.00,VWS V14.01,2013-03-14 00:17:00,
2013-03-13 20:22:00,35.3,20.8,30.11,WNW,297,6.0,12.0,55,0.00,,---,0.00,VWS V14.01,2013-03-14 00:22:00,
2013-03-13 20:27:00,35.4,21.3,30.12,NNW,330,3.0,12.0,56,0.00,,---,0.00,VWS V14.01,2013-03-14 00:27:00,
2013-03-13 20:30:00,35.4,20.9,30.11,NW,313,14.0,18.0,55,0.00,,---,0.00,VWS V14.01,2013-03-14 00:30:00,
2013-03-13 20:32:00,35.4,20.9,30.12,WNW,298,7.0,14.0,55,0.00,,---,0.00,VWS V14.01,2013-03-14 00:32:00,
2013-03-13 20:37:00,35.2,20.7,30.11,West,269,16.0,20.0,55,0.00,,---,0.00,VWS V14.01,2013-03-14 00:37:00,
2013-03-13 20:42:00,35.0,21.3,30.12,WNW,288,6.0,20.0,57,0.00,,---,0.00,VWS V14.01,2013-03-14 00:42:00,
2013-03-13 20:47:00,34.8,21.1,30.12,NNW,345,7.0,20.0,57,0.00,,---,0.00,VWS V14.01,2013-03-14 00:47:00,
2013-03-13 20:52:00,34.7,21.0,30.13,NW,313,4.0,20.0,57,0.00,,---,0.00,VWS V14.01,2013-03-14 00:52:00,
2013-03-13 20:57:00,34.6,20.1,30.13,North,351,8.0,20.0,55,0.00,,---,0.00,VWS V14.01,2013-03-14 00:57:00,
2013-03-13 21:00:00,34.6,20.1,30.12,NW,308,16.0,20.0,55,0.00,,---,0.00,VWS V14.01,2013-03-14 01:00:00,
2013-03-13 21:02:00,34.5,19.1,30.13,NW,319,13.0,26.0,53,0.00,,---,0.00,VWS V14.01,2013-03-14 01:02:00,
2013-03-13 21:07:00,34.4,18.6,30.13,NW,323,9.0,26.0,52,0.00,,---,0.00,VWS V14.01,2013-03-14 01:07:00,
2013-03-13 21:12:00,34.3,18.5,30.14,WNW,294,9.0,26.0,52,0.00,,---,0.00,VWS V14.01,2013-03-14 01:12:00,
2013-03-13 21:17:00,34.1,17.9,30.14,WNW,284,6.0,26.0,51,0.00,,---,0.00,VWS V14.01,2013-03-14 01:17:00,
2013-03-13 21:22:00,34.1,17.9,30.14,NW,305,8.0,26.0,51,0.00,,---,0.00,VWS V14.01,2013-03-14 01:22:00,
2013-03-13 21:27:00,33.9,16.3,30.14,West,281,11.0,26.0,48,0.00,,---,0.00,VWS V14.01,2013-03-14 01:27:00,
2013-03-13 21:30:00,33.9,16.8,30.14,NNE,21,14.0,26.0,49,0.00,,---,0.00,VWS V14.01,2013-03-14 01:30:00,
2013-03-13 21:32:00,33.7,16.6,30.14,NW,313,15.0,19.0,49,0.00,,---,0.00,VWS V14.01,2013-03-14 01:32:00,
2013-03-13 21:37:00,33.7,16.1,30.14,NW,313,9.0,19.0,48,0.00,,---,0.00,VWS V14.01,2013-03-14 01:37:00,
2013-03-13 21:42:00,33.6,16.5,30.15,WNW,287,8.0,19.0,49,0.00,,---,0.00,VWS V14.01,2013-03-14 01:42:00,
2013-03-13 21:47:00,33.4,15.8,30.14,NW,318,10.0,23.0,48,0.00,,---,0.00,VWS V14.01,2013-03-14 01:47:00,
2013-03-13 21:52:00,33.4,15.8,30.15,NNW,328,5.0,25.0,48,0.00,,---,0.00,VWS V14.01,2013-03-14 01:52:00,
2013-03-13 21:57:00,33.4,15.8,30.15,NW,322,5.0,25.0,48,0.00,,---,0.00,VWS V14.01,2013-03-14 01:57:00,
2013-03-13 22:00:00,33.3,15.7,30.15,NNW,330,13.0,25.0,48,0.00,,---,0.00,VWS V14.01,2013-03-14 02:00:00,
2013-03-13 22:02:00,33.2,15.6,30.15,NW,307,11.0,14.0,48,0.00,,---,0.00,VWS V14.01,2013-03-14 02:02:00,
2013-03-13 22:07:00,33.0,15.5,30.15,NW,313,15.0,18.0,48,0.00,,---,0.00,VWS V14.01,2013-03-14 02:07:00,
2013-03-13 22:12:00,33.0,15.5,30.15,WNW,291,9.0,21.0,48,0.00,,---,0.00,VWS V14.01,2013-03-14 02:12:00,
2013-03-13 22:17:00,32.9,15.4,30.15,NW,325,8.0,22.0,48,0.00,,---,0.00,VWS V14.01,2013-03-14 02:17:00,
2013-03-13 22:22:00,32.7,15.7,30.15,North,355,12.0,22.0,49,0.00,,---,0.00,VWS V14.01,2013-03-14 02:22:00,
2013-03-13 22:27:00,32.6,16.0,30.15,NW,304,10.0,22.0,50,0.00,,---,0.00,VWS V14.01,2013-03-14 02:27:00,
2013-03-13 22:30:00,32.5,15.9,30.15,NNE,13,5.0,22.0,50,0.00,,---,0.00,VWS V14.01,2013-03-14 02:30:00,
2013-03-13 22:32:00,32.3,15.8,30.16,NW,313,6.0,15.0,50,0.00,,---,0.00,VWS V14.01,2013-03-14 02:32:00,
2013-03-13 22:37:00,32.3,15.8,30.15,WNW,283,12.0,19.0,50,0.00,,---,0.00,VWS V14.01,2013-03-14 02:37:00,
2013-03-13 22:42:00,32.2,15.7,30.15,WNW,294,8.0,19.0,50,0.00,,---,0.00,VWS V14.01,2013-03-14 02:42:00,
2013-03-13 22:47:00,32.2,16.1,30.15,WNW,298,8.0,19.0,51,0.00,,---,0.00,VWS V14.01,2013-03-14 02:47:00,
2013-03-13 22:52:00,32.1,16.0,30.15,NW,315,4.0,19.0,51,0.00,,---,0.00,VWS V14.01,2013-03-14 02:52:00,
2013-03-13 22:57:00,31.9,15.8,30.16,NW,306,7.0,20.0,51,0.00,,---,0.00,VWS V14.01,2013-03-14 02:57:00,
2013-03-13 23:00:00,31.9,15.8,30.16,West,275,10.0,20.0,51,0.00,,---,0.00,VWS V14.01,2013-03-14 03:00:00,
2013-03-13 23:02:00,31.9,15.8,30.16,NNW,333,8.0,17.0,51,0.00,,---,0.00,VWS V14.01,2013-03-14 03:02:00,
2013-03-13 23:07:00,31.9,15.8,30.16,NW,324,12.0,19.0,51,0.00,,---,0.00,VWS V14.01,2013-03-14 03:07:00,
2013-03-13 23:12:00,31.9,15.8,30.16,NW,323,9.0,19.0,51,0.00,,---,0.00,VWS V14.01,2013-03-14 03:12:00,
2013-03-13 23:17:00,31.9,16.3,30.17,WNW,296,6.0,19.0,52,0.00,,---,0.00,VWS V14.01,2013-03-14 03:17:00,
2013-03-13 23:22:00,31.9,16.3,30.16,WNW,301,1.0,19.0,52,0.00,,---,0.00,VWS V14.01,2013-03-14 03:22:00,
2013-03-13 23:27:00,31.7,16.1,30.17,WNW,298,10.0,19.0,52,0.00,,---,0.00,VWS V14.01,2013-03-14 03:27:00,
2013-03-13 23:30:00,31.7,16.1,30.16,WNW,287,10.0,19.0,52,0.00,,---,0.00,VWS V14.01,2013-03-14 03:30:00,
2013-03-13 23:32:00,31.7,16.1,30.16,WNW,286,14.0,18.0,52,0.00,,---,0.00,VWS V14.01,2013-03-14 03:32:00,
2013-03-13 23:37:00,31.7,16.1,30.16,NW,310,9.0,18.0,52,0.00,,---,0.00,VWS V14.01,2013-03-14 03:37:00,
2013-03-13 23:42:00,31.7,16.1,30.16,NW,313,5.0,18.0,52,0.00,,---,0.00,VWS V14.01,2013-03-14 03:42:00,
2013-03-13 23:47:00,31.6,16.5,30.16,NW,319,3.0,18.0,53,0.00,,---,0.00,VWS V14.01,2013-03-14 03:47:00,
2013-03-13 23:52:00,31.6,16.5,30.16,NW,317,7.0,18.0,53,0.00,,---,0.00,VWS V14.01,2013-03-14 03:52:00,
2013-03-13 23:57:00,31.5,16.4,30.16,NW,313,13.0,18.0,53,0.00,,---,0.00,VWS V14.01,2013-03-14 03:57:00,